Flag for Canada Weather past 2 weeks in Norfolk, Ontario, Canada

Now
63 °F

Mild.


Feels Like: 63 °F
Forecast: 67 / 83 °F
Wind: 1 mph from Northwest

Location: Delhi CS

Current Time: Sep 4, 2015 at 3:53:19 AM

Latest Report: Sep 4, 2015 at 3:00 AM


Visibility: N/A

Pressure: 29.97 "Hg

Humidity: 96%

Dew point: 62 °F

Location of NorfolkLocation

Historic Weather in Norfolk — Graph

°F

Norfolk temperature yesterday

Maximum temperature yesterday: 89 °F (at 2:00 PM)
Minimum temperature yesterday: 64 °F (at 4:00 AM)
Average temperature yesterday: 73 °F

Past Weeks' High & Low Weather Summary

 TemperatureHumidityPressure
High89 °F (Sep 3, 2:00 PM)100% (Aug 28, 6:00 AM)30.21 "Hg (Aug 28, 6:00 AM)
Low44 °F (Aug 28, 7:00 AM)32% (Aug 23, 5:00 PM)29.69 "Hg (Aug 20, 5:00 AM)
Average66 °F77%30.01 "Hg
* Reported Aug 20 2:00 AM — Sep 4 2:00 AM, Norfolk, Weather by CustomWeather, © 2015

Note: Actual official high and low records may vary slightly from our data, if they occured in-between our weather recording intervals... More about our weather records

Advertising

Norfolk weather history for previous 24 hours

 ConditionsComfort  
Time TempWeatherWind HumidityBarometerVisibility
2:00 AM
Fri, Sep 4
64 °FMild.2 mph95%29.97 "HgN/A
1:00 AM64 °FMild.2 mph95%29.97 "HgN/A
12:00 AM64 °FMild.2 mph95%29.96 "HgN/A
11:00 PM
Thu, Sep 3
65 °FMild.1 mph96%29.94 "HgN/A
10:00 PM65 °FMild.2 mph94%29.94 "HgN/A
9:00 PM68 °FMild.1 mph86%29.91 "HgN/A
8:00 PM70 °FMild.1 mph83%29.92 "HgN/A
7:00 PM71 °FMild.1 mph82%29.94 "HgN/A
6:00 PM74 °FMild.8 mph73%29.94 "HgN/A
5:00 PM75 °FMild.2 mph66%29.91 "HgN/A
4:00 PM78 °FWarm.5 mph55%29.90 "HgN/A
3:00 PM88 °FWarm.7 mph55%29.89 "HgN/A
2:00 PM89 °FHot.7 mph53%29.90 "HgN/A
1:00 PM87 °FWarm.5 mph56%29.92 "HgN/A
12:00 PM83 °FWarm.2 mph63%29.92 "HgN/A
11:00 AM83 °FWarm.2 mph60%29.94 "HgN/A
10:00 AM78 °FWarm.2 mph74%29.94 "HgN/A
9:00 AM72 °FMild.1 mph94%29.94 "HgN/A
8:00 AM66 °FMild.No wind98%29.94 "HgN/A
7:00 AM64 °FMild.No wind98%29.93 "HgN/A
6:00 AM66 °FMild.No wind98%29.91 "HgN/A
5:00 AM66 °FMild.1 mph98%29.92 "HgN/A
4:00 AM64 °FMild.1 mph100%29.92 "HgN/A
3:00 AM66 °FMild.2 mph97%29.90 "HgN/A
Weather by CustomWeather, © 2015

See weather overviewHow to use our weather pages